Weather in Shamari

Russia / Sverdlovsk Oblast     57°20′20″N   58°13′08″E
temp.,
°C
wind,
m/s
gust,
m/s
humid.,
%
clouds,
%
prec.,
mm/h
press.,
hPa
HPBL,
m
5 august, thu
thu523:00+18ne118136 0.2 101011
02:00+18e117973 0.1 101013
05:00+16ese118166 0.1 100911
08:00+20ese2373100 0.0 1009160
11:00+24ssw475870 0.0 1009814
14:00+27w455097 0.0 10081392
17:00+23nw556731 0.0 1009878
20:00+20nw488082 0.0 1009646
6 august, fri
fri623:00+15nw41095100 0.0 1011483
02:00+14nw4890100 0.0 1011591
05:00+14wnw4988100 0.0 1011478
08:00+14nw5118276 0.0 1011613
11:00+19nw68560 0.0 10121151
14:00+21nw684720 0.0 10121606
17:00+21nw574837 0.0 10121709
20:00+17nw49580 0.0 1014534
7 august, sat
sat723:00+11nw210820 0.0 1014200
02:00+9wnw24890 0.0 101569
05:00+8wnw22965 0.0 101629
08:00+12nw4972100 0.0 1016397
11:00+17nw575660 0.0 10151241
14:00+19nw574439 0.0 10151700
17:00+19nw5744100 0.0 10151873
20:00+16n37650 0.0 1016375
8 august, sun
sun823:00+10nw23870 0.0 101763
02:00+8nw210970 0.0 1018219
05:00+8nw3119813 0.0 1019332
08:00+11nw4108317 0.0 1019495
11:00+16nw57580 0.0 1018952
14:00+20nnw57500 0.0 10181299
17:00+20nnw465015 0.0 10181400
20:00+17nw377034 0.0 1019235
9 august, mon
mon923:00+11nw229516 0.0 102019
02:00+9wnw119644 0.0 102112
05:00+9wnw119762 0.0 102111
08:00+13nw268374 0.0 1021289
11:00+19nw355370 0.0 1020843
14:00+22nw4544100 0.0 10201147
17:00+23nw454987 0.0 10191189
20:00+18nw2275100 0.0 101939